Total_Precipitation_Accumulation
3.06 3.39 3.29 3.35 3.05 3.20 3.52 3.82 3.84 4.07 4.39 4.27 3.77 3.54 3.65 3.55 3.25 3.04 3.20 3.43 3.51 3.50 3.90 4.21 3.84 3.55 3.45 3.10 2.80 2.63 2.49 2.41 2.23 2.00 1.84 1.73 1.62 1.45 1.33 1.33 1.15 1.02 0.95
3.30 3.60 3.49 3.37 3.02 3.03 3.38 3.72 3.75 4.09 4.25 4.31 3.79 3.45 3.44 3.40 3.09 2.80 2.86 3.35 3.43 3.35 3.57 3.99 4.13 4.04 3.85 3.51 3.15 2.86 2.61 2.45 2.36 2.19 1.93 1.75 1.66 1.56 1.54 1.42 1.28 1.19 1.06
3.53 3.85 3.77 3.33 3.06 3.16 3.39 3.37 3.50 4.00 3.95 3.88 3.77 3.63 3.54 3.35 3.01 2.92 2.87 3.07 2.94 3.09 3.37 3.55 3.88 4.18 4.23 4.10 3.88 3.47 3.12 2.69 2.42 2.23 1.98 1.78 1.67 1.53 1.52 1.49 1.39 1.31 1.17
3.13 3.55 3.34 2.90 2.94 3.12 3.36 3.41 3.37 3.75 3.92 3.94 3.99 3.79 3.60 3.37 2.96 2.85 2.86 2.86 2.85 2.56 2.86 3.25 3.66 3.99 4.41 4.68 4.77 4.62 4.17 3.43 2.83 2.50 2.17 1.96 1.79 1.59 1.42 1.39 1.43 1.40 1.23
2.24 2.68 2.66 2.58 2.60 2.89 2.99 2.66 2.92 3.24 3.48 3.66 3.38 3.31 2.95 2.75 2.67 2.47 2.44 2.37 2.57 2.69 2.84 2.90 3.28 3.61 4.26 5.14 5.69 5.64 5.16 4.27 3.46 3.01 2.66 2.38 2.20 1.92 1.58 1.41 1.42 1.38 1.26
2.07 2.35 2.40 2.25 2.21 2.47 2.63 2.78 3.09 3.14 3.00 3.08 2.66 2.70 2.68 2.44 2.44 2.39 2.20 2.19 2.31 2.28 2.56 2.89 3.19 2.98 3.52 4.51 5.31 5.56 5.45 4.99 4.18 3.53 3.17 2.98 2.89 2.50 1.96 1.70 1.61 1.49 1.37
2.24 2.54 2.35 2.40 2.24 2.31 2.42 2.49 2.72 2.83 2.60 2.77 3.14 2.96 2.65 2.37 2.31 2.24 2.17 2.25 2.27 2.38 2.60 2.99 3.20 3.26 3.13 3.17 3.67 4.45 5.12 5.42 5.19 4.48 3.83 3.43 3.31 2.91 2.33 2.08 1.88 1.72 1.67
2.18 2.13 2.36 2.20 2.16 2.42 2.40 2.49 2.70 2.67 2.38 2.56 3.06 3.29 3.06 2.99 2.44 1.81 2.03 2.16 2.22 2.48 2.55 2.53 2.78 3.29 3.31 3.50 2.88 3.23 4.40 5.18 5.71 5.72 5.02 4.22 3.78 3.29 2.75 2.52 2.25 2.04 1.93
1.84 1.96 2.03 2.00 2.17 2.11 2.32 2.47 2.57 2.77 2.72 2.47 2.48 2.97 2.99 2.96 2.67 2.09 1.81 1.93 2.25 2.56 2.56 2.58 2.58 2.93 3.22 3.62 3.45 2.97 3.26 3.85 4.94 5.97 6.06 5.21 4.16 3.40 3.03 2.90 2.80 2.55 2.31
1.83 1.88 1.91 2.08 2.15 2.03 2.37 2.11 2.26 2.64 2.80 2.51 2.49 2.42 2.47 2.68 2.76 2.58 2.18 1.89 2.09 2.24 2.39 2.37 2.50 2.84 3.10 3.33 3.37 2.78 2.43 2.69 3.64 4.92 5.81 5.82 5.02 4.00 3.43 3.42 3.62 3.45 3.05
1.92 1.73 1.92 2.20 2.30 2.15 2.20 2.30 2.60 2.54 2.52 2.46 2.40 2.34 2.48 2.56 2.39 2.46 2.44 2.25 2.08 1.76 1.92 2.23 2.48 2.63 2.80 3.05 3.32 2.98 2.77 2.56 2.65 3.21 3.97 4.74 5.19 4.85 4.38 4.28 4.56 4.73 4.50
1.93 1.85 2.01 2.28 2.31 2.35 2.32 2.28 2.38 2.42 2.51 2.57 2.48 2.31 2.40 2.52 2.53 2.65 2.40 2.31 2.31 1.98 2.05 2.33 2.45 2.60 2.58 2.73 2.73 2.70 2.63 2.58 2.51 2.48 2.72 3.19 3.91 4.45 4.62 4.79 5.17 5.51 5.63
1.76 1.90 2.01 2.26 2.26 2.27 2.21 2.41 2.44 2.42 2.51 2.48 2.39 2.35 2.27 2.19 2.32 2.52 2.54 2.34 2.30 2.17 2.38 2.35 2.37 2.44 2.40 2.66 2.81 2.76 2.35 2.36 2.23 2.15 2.22 2.41 2.76 3.35 3.96 4.38 4.83 5.34 5.71
1.47 1.61 1.78 1.83 1.92 1.98 1.95 2.44 2.34 2.41 2.53 2.36 2.16 2.50 2.37 2.07 2.23 2.37 2.61 2.87 2.69 2.54 2.60 2.49 2.43 2.46 2.62 2.75 2.88 2.81 2.34 2.34 2.16 1.99 1.88 1.85 1.96 2.22 2.66 3.04 3.43 3.82 4.26
1.52 1.58 1.65 1.88 2.02 2.09 2.16 2.46 2.39 2.39 2.59 2.38 2.28 2.43 2.33 2.22 2.21 2.18 2.57 2.96 3.19 2.97 2.77 2.64 2.39 2.30 2.42 2.54 2.63 2.26 2.07 2.20 2.09 1.93 1.78 1.68 1.67 1.78 1.95 2.12 2.23 2.34 2.51
1.65 1.77 1.86 2.02 2.14 2.12 2.17 2.40 2.35 2.47 2.59 2.46 2.42 2.44 2.34 2.27 2.38 2.30 2.43 2.74 3.02 3.22 2.97 2.47 2.30 2.18 2.22 2.04 2.18 1.89 1.90 2.10 1.95 1.79 1.69 1.65 1.63 1.65 1.67 1.70 1.76 1.80 1.86
1.75 1.83 1.94 2.10 2.14 2.22 2.36 2.49 2.31 2.43 2.55 2.69 2.56 2.56 2.59 2.70 2.68 2.57 2.65 2.73 2.92 3.22 3.11 2.56 2.43 2.42 2.30 2.06 2.01 1.90 1.84 1.92 1.92 1.99 1.81 1.69 1.57 1.48 1.47 1.49 1.53 1.62 1.69
2.06 2.01 2.09 2.17 2.06 2.12 2.36 2.44 2.41 2.47 2.51 2.53 2.71 2.97 2.87 2.92 2.87 2.70 2.82 2.76 2.84 3.19 3.07 2.75 2.72 2.73 2.67 2.41 2.25 2.05 1.82 1.81 1.93 2.15 1.87 1.71 1.62 1.53 1.49 1.47 1.46 1.46 1.50
2.32 2.39 2.40 2.27 2.19 2.19 2.27 2.37 2.50 2.51 2.52 2.57 2.72 2.79 2.84 3.07 2.94 2.83 2.74 2.70 2.80 2.99 3.14 2.86 2.78 2.98 2.83 2.53 2.39 2.11 1.89 1.98 1.75 1.85 1.82 1.74 1.70 1.63 1.55 1.47 1.47 1.46 1.43
2.38 2.53 2.51 2.46 2.40 2.28 2.15 2.13 2.22 2.31 2.46 2.60 2.65 2.57 2.67 2.91 2.99 2.98 2.75 2.74 2.89 3.03 3.08 2.97 2.84 2.98 3.01 2.91 2.74 2.48 2.36 2.18 1.96 1.78 1.85 1.75 1.74 1.67 1.57 1.45 1.45 1.45 1.46
2.34 2.51 2.59 2.65 2.59 2.39 2.11 2.19 2.34 2.33 2.50 2.50 2.41 2.32 2.32 2.55 2.78 2.85 2.57 2.60 2.77 2.80 2.82 2.87 2.84 2.92 2.99 3.15 2.98 2.66 2.42 2.26 2.02 1.83 1.84 1.68 1.67 1.58 1.58 1.59 1.55 1.46 1.31
2.74 2.76 2.65 2.62 2.55 2.16 2.33 2.40 2.39 2.40 2.50 2.49 2.41 2.30 2.18 2.14 2.15 2.31 2.43 2.54 2.69 2.68 2.70 2.89 3.05 3.11 3.11 3.18 3.17 2.94 2.66 2.40 2.16 1.92 2.03 2.01 1.91 1.84 1.68 1.53 1.55 1.46 1.33
3.14 3.11 2.95 2.77 2.61 2.55 2.53 2.34 2.29 2.14 2.16 2.22 2.30 2.28 1.97 1.77 1.90 1.81 2.04 2.22 2.32 2.40 2.48 2.72 2.89 2.97 3.10 3.25 3.34 3.06 2.88 2.67 2.38 2.13 2.16 1.99 1.90 1.90 1.80 1.74 1.80 1.56 1.44
3.10 3.11 2.98 2.83 2.69 2.61 2.53 2.25 2.22 1.98 1.95 1.98 2.04 2.06 1.98 1.83 1.83 1.96 1.96 1.87 1.80 1.89 2.10 2.15 2.28 2.56 2.81 3.04 3.25 3.15 3.07 2.76 2.41 2.16 2.12 1.93 1.77 1.77 1.77 1.81 1.88 1.71 1.53
2.85 2.73 2.64 2.61 2.59 2.63 2.65 2.34 2.15 1.90 1.93 1.90 1.89 1.90 1.91 1.79 1.96 1.93 1.88 1.84 1.82 1.82 1.90 2.02 2.04 2.21 2.46 2.64 2.82 2.92 2.90 2.75 2.46 2.22 2.20 2.18 1.94 1.88 1.86 1.74 1.68 1.73 1.60
2.74 2.65 2.50 2.49 2.49 2.46 2.53 2.20 2.05 1.86 1.87 1.86 1.90 1.91 1.92 1.80 1.82 1.74 1.67 1.76 1.73 1.75 1.85 1.86 1.86 1.89 1.97 2.29 2.69 2.54 2.59 2.66 2.41 2.09 1.89 2.03 2.02 2.07 2.00 1.69 1.48 1.46 1.45